Location: *
(37.5724°S, 58.0067°E)
Time: 11:41:30
(UTC+00:00)

FengYun 1-2 T - Pass Details

Date: 26 September 2020
Orbit: 846 x 881 km, 98.7° (Epoch: 30 October)

Event Time Altitude Azimuth Distance (km) Brightness Sun altitude
Rises 15:03:10 0° 169° (S) 3,445 7.4 -11.6°
Reaches altitude 10° 15:05:34 10° 170° (S) 2,504 6.7 -12.1°
Maximum altitude 15:11:06 75° 254° (WSW) 892 4.5 -13.2°
Drops below altitude 10° 15:16:38 10° 339° (NNW) 2,489 6.7 -14.2°
Sets 15:18:59 0° 340° (NNW) 3,423 7.4 -14.7°
